Location: Cheyres
(46.8153°N, 6.7877°E)
Time: 04:19:22
(UTC+00:00)

Cosmos 44 Rocket - Pass Details

Date: 11 May 2021
Orbit: 636 x 754 km, 65.1° (Epoch: 18 June)

Event Time Altitude Azimuth Distance (km) Brightness Sun altitude
Rises 23:21:48 0° 325° (NW) 3,215 7.6 -25.0°
Reaches altitude 10° 23:24:18 10° 331° (NNW) 2,285 6.8 -25.0°
Maximum altitude 23:29:23 48° 46° (NE) 973 4.2 -25.0°
Enters shadow 23:31:23 32° 100° (E) 1,265 4.5 -25.0°
